TimeCDT,TemperatureF,Dew PointF,Humidity,Sea Level PressureIn,VisibilityMPH,Wind Direction,Wind SpeedMPH,Gust SpeedMPH,PrecipitationIn,Events,Conditions,WindDirDegrees,DateUTC
12:43 AM,62.6,55.4,77,29.61,10.0,WSW,11.5,-,N/A,,Mostly Cloudy,240,2013-05-21 05:43:00
12:58 AM,63.1,55.6,76,29.62,10.0,WSW,10.4,-,N/A,,Mostly Cloudy,250,2013-05-21 05:58:00
1:07 AM,62.6,57.2,82,29.62,10.0,West,10.4,-,N/A,Rain,Light Rain,260,2013-05-21 06:07:00
1:31 AM,60.8,59.0,94,29.62,10.0,West,11.5,-,N/A,,Mostly Cloudy,270,2013-05-21 06:31:00
1:36 AM,60.8,59.0,94,29.62,10.0,West,11.5,-,N/A,,Mostly Cloudy,270,2013-05-21 06:36:00
1:58 AM,61.0,58.3,91,29.62,10.0,West,10.4,-,0.00,,Scattered Clouds,280,2013-05-21 06:58:00
2:58 AM,60.1,55.4,85,29.63,10.0,West,9.2,-,N/A,,Overcast,260,2013-05-21 07:58:00
3:58 AM,58.3,54.9,88,29.63,10.0,West,10.4,-,N/A,,Clear,270,2013-05-21 08:58:00
4:58 AM,56.8,53.2,88,29.65,10.0,WSW,9.2,-,N/A,,Clear,240,2013-05-21 09:58:00
5:58 AM,55.8,52.7,89,29.67,10.0,WSW,9.2,-,N/A,,Partly Cloudy,240,2013-05-21 10:58:00
6:58 AM,56.1,50.7,82,29.67,10.0,WSW,6.9,-,N/A,,Clear,240,2013-05-21 11:58:00
7:38 AM,57.2,50.0,77,29.69,10.0,WSW,11.5,-,N/A,,Mostly Cloudy,240,2013-05-21 12:38:00
7:53 AM,59.0,48.2,67,29.69,10.0,West,9.2,-,N/A,,Mostly Cloudy,260,2013-05-21 12:53:00
7:58 AM,58.3,49.1,71,29.69,10.0,West,12.7,19.6,N/A,,Mostly Cloudy,260,2013-05-21 12:58:00
8:13 AM,59.0,50.0,72,29.70,10.0,WSW,12.7,-,N/A,,Mostly Cloudy,250,2013-05-21 13:13:00
8:58 AM,59.9,49.5,68,29.69,10.0,WSW,17.3,21.9,N/A,,Mostly Cloudy,250,2013-05-21 13:58:00
9:23 AM,60.8,48.2,63,29.69,10.0,West,12.7,-,N/A,,Mostly Cloudy,270,2013-05-21 14:23:00
9:58 AM,62.8,49.3,61,29.68,10.0,WSW,18.4,-,N/A,,Mostly Cloudy,250,2013-05-21 14:58:00
10:58 AM,63.7,48.4,57,29.69,10.0,WSW,13.8,23.0,N/A,,Mostly Cloudy,250,2013-05-21 15:58:00
11:58 AM,64.0,47.7,55,29.68,10.0,West,13.8,21.9,N/A,,Mostly Cloudy,260,2013-05-21 16:58:00
12:58 PM,62.8,46.8,56,29.71,10.0,WSW,16.1,-,N/A,,Overcast,250,2013-05-21 17:58:00
1:58 PM,62.1,46.0,56,29.70,10.0,WSW,16.1,-,N/A,,Mostly Cloudy,240,2013-05-21 18:58:00
2:58 PM,63.7,47.7,56,29.70,10.0,WSW,18.4,25.3,N/A,,Mostly Cloudy,250,2013-05-21 19:58:00
3:58 PM,63.1,47.7,57,29.71,10.0,SW,15.0,-,N/A,,Overcast,230,2013-05-21 20:58:00
4:58 PM,62.8,47.3,57,29.70,10.0,WSW,13.8,19.6,N/A,,Overcast,250,2013-05-21 21:58:00
5:58 PM,62.8,48.7,60,29.70,10.0,WSW,9.2,-,N/A,,Overcast,250,2013-05-21 22:58:00
6:58 PM,62.1,50.2,65,29.69,10.0,West,15.0,24.2,N/A,,Overcast,270,2013-05-21 23:58:00
7:58 PM,60.3,52.5,76,29.69,10.0,WNW,11.5,-,N/A,,Mostly Cloudy,290,2013-05-22 00:58:00
8:18 PM,60.8,51.8,72,29.70,10.0,West,15.0,-,N/A,,Overcast,270,2013-05-22 01:18:00
8:58 PM,60.3,51.6,73,29.72,10.0,WNW,11.5,-,N/A,,Overcast,300,2013-05-22 01:58:00
9:58 PM,58.5,52.2,80,29.73,10.0,WNW,12.7,-,N/A,,Overcast,290,2013-05-22 02:58:00
10:58 PM,57.7,50.5,77,29.73,10.0,WNW,12.7,-,N/A,,Overcast,300,2013-05-22 03:58:00
11:58 PM,56.1,49.6,79,29.74,10.0,NW,13.8,-,N/A,,Overcast,310,2013-05-22 04:58:00